Weather History for KWST - January, 2014

Change the Weather History Date:

Sunday, January 26, 2014

  Actual Average (KGON) Record (KGON)
Temperature  
Mean Temperature 22 °F -  
Max Temperature 27 °F 39 °F 55 °F (1978)
Min Temperature 17 °F 23 °F 0 °F (1991)
Degree Days  
Heating Degree Days 43    
Moisture  
Dew Point 7 °F    
Average Humidity 56    
Maximum Humidity 78    
Minimum Humidity 33    
Precipitation  
Precipitation 0.00 in - - ()
Sea Level Pressure  
Sea Level Pressure 29.77 in    
Wind  
Wind Speed 10 mph (WSW)    
Max Wind Speed 14 mph    
Max Gust Speed 25 mph    
Visibility 10 miles    
Events      
Averages and records for this station are not official NWS values.
T = Trace of Precipitation, MM = Missing Value Source: NWS Daily Summary

Daily Weather History Graph

Daily Weather History Graph

Search for Another Location

Airport or City:

Trip Planner

Search our weather history database for the weather conditions in past years. The results will help you decide how hot, cold, wet, or windy it might be!

Date:

Astronomy

Jan. 26, 2014 Rise Set
Actual Time 7:04 AM EST 4:56 PM EST
Civil Twilight 6:34 AM EST 5:25 PM EST
Nautical Twilight 6:00 AM EST 5:59 PM EST
Astronomical Twilight 5:28 AM EST 6:31 PM EST
Moon 2:38 AM EST (1/26) 12:42 PM EST (1/26)
Length of Visible Light 10h 51m
Length of Day
9h 52m
Waning Crescent, 24% of the Moon is Illuminated
Jan 26
Waning Crescent
Jan 30
New
Feb 6
First Quarter
Feb 14
Full
Feb 22
Last Quarter

Hourly Weather History & Observations

Time (EST) Temp. Windchill Dew Point Humidity Pressure Visibility Wind Dir Wind Speed Gust Speed Precip Events Conditions
12:53 AM 24.1 °F 12.5 °F 16.0 °F 71% 29.42 in 10.0 mi WSW 12.7 mph 21.9 mph N/A   Clear
1:53 AM 24.1 °F 14.4 °F 16.0 °F 71% 29.46 in 10.0 mi West 9.2 mph 19.6 mph N/A   Clear
2:53 AM 24.1 °F 13.7 °F 16.0 °F 71% 29.49 in 10.0 mi West 10.4 mph - N/A   Clear
3:53 AM 21.9 °F 11.7 °F 14.0 °F 72% 29.53 in 10.0 mi West 9.2 mph 16.1 mph N/A   Clear
4:53 AM 21.0 °F 11.4 °F 10.0 °F 63% 29.59 in 10.0 mi WNW 8.1 mph 16.1 mph N/A   Clear
5:53 AM 19.0 °F - 5.0 °F 54% 29.63 in 10.0 mi North - - N/A   Scattered Clouds
6:53 AM 18.0 °F 5.4 °F 6.1 °F 60% 29.69 in 10.0 mi WNW 11.5 mph 19.6 mph N/A   Partly Cloudy
7:53 AM 17.1 °F 6.6 °F -2.0 °F 43% 29.77 in 10.0 mi West 8.1 mph - N/A   Clear
8:53 AM 18.0 °F 4.8 °F -2.0 °F 41% 29.82 in 10.0 mi WSW 12.7 mph - N/A   Clear
9:53 AM 19.0 °F 5.6 °F -2.9 °F 38% 29.85 in 10.0 mi West 13.8 mph 21.9 mph N/A   Clear
10:53 AM 19.9 °F 6.7 °F -4.0 °F 35% 29.86 in 10.0 mi WSW 13.8 mph 25.3 mph N/A   Clear
11:53 AM 19.9 °F 6.7 °F -4.0 °F 35% 29.85 in 10.0 mi WSW 13.8 mph 18.4 mph N/A   Clear
12:53 PM 21.0 °F 9.9 °F -4.0 °F 33% 29.82 in 10.0 mi WSW 10.4 mph 19.6 mph N/A   Clear
1:53 PM 21.0 °F 8.6 °F -0.9 °F 38% 29.83 in 10.0 mi West 12.7 mph 19.6 mph N/A   Clear
2:53 PM 21.0 °F 8.1 °F 1.9 °F 44% 29.86 in 10.0 mi WSW 13.8 mph 19.6 mph N/A   Overcast
3:53 PM 21.0 °F 9.3 °F 6.1 °F 53% 29.88 in 10.0 mi WSW 11.5 mph 24.2 mph N/A   Overcast
4:53 PM 21.0 °F 9.9 °F 8.1 °F 57% 29.89 in 10.0 mi SW 10.4 mph 18.4 mph 0.00 in   Overcast
5:53 PM 21.0 °F 9.3 °F 6.1 °F 53% 29.90 in 10.0 mi SW 11.5 mph - N/A   Clear
6:53 PM 23.0 °F 11.1 °F 12.0 °F 63% 29.90 in 10.0 mi SW 12.7 mph - N/A   Partly Cloudy
7:53 PM 23.0 °F 14.7 °F 12.0 °F 63% 29.91 in 10.0 mi SW 6.9 mph - N/A   Clear
8:53 PM 24.1 °F 19.7 °F 14.0 °F 65% 29.91 in 10.0 mi SW 3.5 mph - N/A   Overcast
9:53 PM 24.1 °F - 16.0 °F 71% 29.89 in 10.0 mi Calm Calm - N/A   Overcast
10:53 PM 27.0 °F 23.0 °F 19.0 °F 72% 29.87 in 10.0 mi Variable 3.5 mph - N/A   Overcast
11:53 PM 26.1 °F - 19.9 °F 78% 29.85 in 10.0 mi Calm Calm - N/A   Overcast